Flag for U.S.A. Weather past 2 weeks in Moreno Valley, California, U.S.A.

Now
75 °F

Sunny.


Feels Like: 76 °F
Forecast: 54 / 88 °F
Wind: 5 mph from Southeast

Location: Riverside / March Air Force Base

Current Time: Mar 27, 2015 at 10:49:03 AM

Latest Report: Mar 27, 2015 at 9:58 AM


Visibility: 10 mi

Pressure: 30.10 "Hg

Humidity: 22%

Dew point: 34 °F

Location of Moreno ValleyLocation

Historic Weather in Moreno Valley — Graph

°F

Moreno Valley temperature yesterday

Maximum temperature yesterday: 88 °F (at 3:58 PM)
Minimum temperature yesterday: 46 °F (at 4:58 AM)
Average temperature yesterday: 68 °F

Past Weeks' High & Low Weather Summary

 TemperatureHumidityPressure
High88 °F (Mar 15, 3:58 PM)100% (Mar 18, 6:58 AM)30.18 "Hg (Mar 18, 6:58 AM)
Low42 °F (Mar 20, 6:58 AM)10% (Mar 16, 3:58 PM)29.87 "Hg (Mar 16, 4:58 PM)
Average64 °F51%30.03 "Hg
* Reported Mar 12 9:58 AM — Mar 27 9:58 AM, Moreno Valley, Weather by CustomWeather, © 2015

Note: Actual official high and low records may vary slightly from our data, if they occured in-between our weather recording intervals... More about our weather records

Advertising

Moreno Valley weather history for previous 24 hours

 ConditionsComfort  
Time TempWeatherWind HumidityBarometerVisibility
9:58 AM
Fri, Mar 27
75 °FSunny.5 mph22%30.10 "Hg10 mi
8:58 AM66 °FSunny.1 mph31%30.11 "Hg10 mi
7:58 AM60 °FSunny.2 mph38%30.09 "Hg10 mi
6:58 AM46 °FClear.1 mph57%30.08 "Hg10 mi
5:58 AM50 °FClear.1 mph50%30.06 "Hg9 mi
4:58 AM48 °FClear.No wind52%30.05 "Hg10 mi
3:58 AM50 °FClear.1 mph51%30.05 "Hg10 mi
2:58 AM49 °FClear.No wind50%30.06 "Hg10 mi
1:58 AM53 °FClear.1 mph45%30.06 "Hg10 mi
12:58 AM55 °FClear.No wind43%30.06 "Hg10 mi
11:58 PM
Thu, Mar 26
58 °FClear.No wind41%30.07 "Hg10 mi
10:58 PM62 °FClear.6 mph37%30.06 "Hg10 mi
9:58 PM64 °FClear.No wind34%30.07 "Hg10 mi
8:58 PM67 °FClear.5 mph30%30.06 "Hg10 mi
7:58 PM76 °FSunny.9 mph22%30.03 "Hg10 mi
6:58 PM80 °FSunny.5 mph14%30.01 "Hg10 mi
5:58 PM87 °FSunny.9 mph12%30.00 "Hg10 mi
4:58 PM88 °FSunny.7 mph11%30.01 "Hg10 mi
3:58 PM88 °FSunny.7 mph10%30.01 "Hg10 mi
2:58 PM88 °FSunny.8 mph11%30.02 "Hg10 mi
1:58 PM86 °FSunny.5 mph12%30.05 "Hg10 mi
12:58 PM86 °FSunny.7 mph11%30.08 "Hg10 mi
11:58 AM84 °FSunny.12 mph12%30.09 "Hg10 mi
10:58 AM83 °FSunny.12 mph12%30.10 "Hg10 mi
Weather by CustomWeather, © 2015

See weather overviewHow to use our weather pages